Total_Precipitation_Accumulation
1.80 1.21 0.74 0.60 0.58 0.72 0.67 0.38 0.41 0.38 0.31 0.37 0.14 0.17 0.26 0.13 0.06 0.07 0.19 0.51 0.79 1.28 0.95 0.55 0.77 0.86 0.78 0.82 0.75 0.78 0.83 0.86 0.85
1.95 1.47 0.85 0.62 0.68 0.90 0.83 0.45 0.43 0.38 0.31 0.34 0.24 0.23 0.19 0.12 0.06 0.03 0.09 0.35 0.85 1.00 0.91 0.62 0.70 0.77 0.86 0.82 0.68 0.76 0.81 1.08 1.00
1.43 1.30 0.84 0.65 0.78 1.16 1.07 0.80 0.51 0.42 0.42 0.52 0.69 0.28 0.14 0.11 0.05 0.02 0.04 0.19 0.71 1.15 1.12 0.90 0.70 0.66 0.69 0.70 0.60 0.55 0.66 0.80 0.85
0.93 1.02 0.87 0.86 0.87 1.02 1.10 0.99 0.75 0.55 0.54 0.65 0.49 0.22 0.17 0.14 0.03 0.04 0.05 0.23 0.69 1.07 1.16 1.00 0.74 0.67 0.72 0.80 0.76 0.67 0.62 0.61 0.65
0.69 0.61 0.63 0.84 0.83 0.93 1.00 0.93 0.96 0.78 0.71 0.55 0.43 0.19 0.19 0.08 0.07 0.04 0.19 0.61 0.68 0.80 0.89 0.87 0.98 0.97 0.80 0.75 0.75 0.73 0.62 0.58 0.67
0.42 0.42 0.35 0.54 0.72 0.78 0.93 0.97 0.85 0.58 0.49 0.41 0.30 0.22 0.07 0.12 0.11 0.09 0.38 0.75 0.68 0.58 0.50 0.58 0.76 0.79 0.71 0.66 0.72 0.70 0.65 0.62 0.66
0.65 0.73 0.65 0.65 0.70 0.68 0.84 0.95 0.77 0.50 0.37 0.32 0.37 0.27 0.24 0.28 0.19 0.16 0.50 0.62 0.59 0.56 0.65 0.60 0.58 0.71 0.80 0.70 0.67 0.57 0.64 0.61 0.63
0.89 0.83 0.65 0.85 0.82 0.71 0.81 0.72 0.45 0.42 0.45 0.42 0.44 0.48 0.54 0.39 0.36 0.36 0.52 0.50 0.70 0.73 0.64 0.64 0.60 0.59 0.68 0.73 0.66 0.62 0.61 0.59 0.60
1.21 0.89 0.75 0.85 0.92 0.89 1.01 1.04 0.88 0.64 0.58 0.49 0.40 0.42 0.46 0.45 0.47 0.44 0.42 0.52 0.79 0.91 0.88 0.87 0.83 0.70 0.69 0.59 0.74 0.86 0.78 0.68 0.57
1.54 1.40 1.16 1.12 1.04 0.95 0.93 1.14 1.22 1.18 1.19 1.40 1.04 0.61 0.61 0.72 0.71 0.57 0.54 0.67 0.83 0.90 1.06 1.10 1.11 0.93 0.79 0.63 0.55 0.71 0.96 0.84 0.78
3.45 3.60 3.25 2.72 2.45 2.41 2.11 1.74 1.73 1.78 1.60 1.50 1.93 1.82 1.38 1.46 1.44 1.25 0.96 0.91 0.96 0.99 1.09 1.12 1.30 1.67 1.47 0.98 0.76 0.67 0.73 1.17 1.10
2.43 3.34 3.07 2.51 2.14 2.00 1.88 1.99 1.79 1.73 1.50 1.24 1.41 1.73 1.65 1.28 1.32 1.64 1.83 1.86 1.68 1.39 1.43 1.24 1.36 1.53 2.05 2.54 2.49 1.69 1.02 0.80 1.35
2.52 1.99 1.67 1.51 1.49 1.36 1.13 1.16 1.31 1.21 1.18 0.86 0.59 0.66 0.91 1.29 1.40 1.34 1.35 1.54 1.99 2.40 2.52 2.48 2.09 1.77 2.06 2.83 2.60 2.80 2.90 2.18 1.34
1.83 1.60 1.60 1.59 1.46 1.33 1.20 1.14 1.13 1.08 0.93 0.84 0.91 1.02 1.06 0.98 0.96 0.94 0.98 1.13 1.22 1.37 1.62 1.86 2.10 2.12 1.87 2.16 3.60 2.81 2.36 2.22 2.56
2.81 2.17 1.95 2.00 1.79 1.57 1.43 1.29 1.05 0.91 0.92 0.99 0.88 0.81 0.91 1.11 1.22 1.25 1.17 1.08 1.15 1.13 1.03 1.06 1.20 1.32 1.49 1.52 2.38 5.23 4.32 2.64 1.88
4.47 3.33 2.34 1.95 1.81 1.76 1.83 1.69 1.42 1.13 1.23 1.55 1.20 0.85 0.57 0.51 0.47 0.58 0.81 0.91 0.91 0.94 1.03 0.93 0.93 1.07 1.29 1.39 1.30 2.35 5.76 6.44 4.43
5.02 4.77 3.48 2.03 1.92 1.76 1.76 1.78 1.69 1.69 2.00 2.34 2.07 1.74 1.25 0.80 0.60 0.60 0.66 0.75 1.03 1.04 1.06 1.18 0.96 0.78 0.84 1.09 1.34 1.38 2.46 4.79 6.20
4.88 4.55 4.82 3.98 2.75 2.09 1.87 1.98 1.87 1.77 1.92 2.23 2.66 2.15 1.67 1.30 1.06 0.93 0.96 0.94 1.14 1.29 1.57 1.65 1.44 1.15 0.95 0.97 1.07 1.31 1.70 2.42 4.10
7.28 5.98 5.25 4.99 4.18 3.56 3.17 2.98 2.79 2.64 2.22 2.28 2.28 2.11 1.67 1.50 1.45 1.15 1.13 1.32 1.93 2.26 2.24 2.34 2.57 2.62 2.11 1.76 1.55 1.68 1.99 2.18 2.98
5.11 6.19 6.33 5.87 5.52 4.57 4.14 3.82 3.51 3.36 3.21 2.85 2.68 2.50 2.22 2.09 1.88 1.46 1.38 1.38 1.72 1.56 1.59 1.75 1.87 2.27 2.91 3.29 2.75 2.03 1.67 2.26 2.70